Location: Catstown
(52.4386°N, 7.2633°W)
Time: 03:16:49
(UTC+00:00)

Cosmos 2251 Rocket - Pass Details

Date: 18 September 2020
Orbit: 764 x 792 km, 74.0° (Epoch: 18 October)

Event Time Altitude Azimuth Distance (km) Brightness Sun altitude
Rises 21:45:54 0° 335° (NNW) 3,304 7.9 -26.9°
Reaches altitude 10° 21:48:20 10° 338° (NNW) 2,369 6.9 -27.2°
Enters shadow 21:53:18 65° 32° (NNE) 867 3.7 -27.7°
